Block Island, RI

11:37 PM EST on January 19, 2018 (GMT -0500)
Block Island State

Weather History for KBID - January, 2014

Change the Weather History Date:

Friday, January 3, 2014

  Actual Average Record
Temperature  
Mean Temperature 12 °F -  
Max Temperature 17 °F 38 °F 55 °F (2000)
Min Temperature 8 °F 27 °F 8 °F (2014)
Degree Days  
Heating Degree Days 52    
Moisture  
Dew Point 2 °F    
Average Humidity 64    
Maximum Humidity 85    
Minimum Humidity 38    
Precipitation  
Precipitation 0.00 in - - ()
Sea Level Pressure  
Sea Level Pressure 29.93 in    
Wind  
Wind Speed 20 mph (North)    
Max Wind Speed 29 mph    
Max Gust Speed 39 mph    
Visibility 6 miles    
Events      
Averages and records for this station are not official NWS values.
T = Trace of Precipitation, MM = Missing Value Source: NWS Daily Summary

Daily Weather History Graph

Daily Weather History Graph

Search for Another Location

Airport or City:

Trip Planner

Search our weather history database for the weather conditions in past years. The results will help you decide how hot, cold, wet, or windy it might be!

Date:

Astronomy

Jan. 03, 2014 Rise Set
Actual Time 7:11 AM EST 4:30 PM EST
Civil Twilight 6:40 AM EST 5:01 PM EST
Nautical Twilight 6:06 AM EST 5:35 PM EST
Astronomical Twilight 5:32 AM EST 6:09 PM EST
Moon 8:34 AM EST (1/3) 7:37 PM EST (1/3)
Length of Visible Light 10h 20m
Length of Day
9h 18m
Waxing Crescent, 8% of the Moon is Illuminated
Jan 3
Waxing Crescent
Jan 7
First Quarter
Jan 15
Full
Jan 24
Last Quarter
Jan 30
New

Hourly Weather History & Observations

Time (EST) Temp. Windchill Dew Point Humidity Pressure Visibility Wind Dir Wind Speed Gust Speed Precip Events Conditions
12:15 AM 15.8 °F -1.1 °F 10.4 °F 79% 29.62 in 1.0 mi NNE 19.6 mph 35.7 mph N/A   Overcast
12:35 AM 15.8 °F -1.9 °F 10.4 °F 79% 29.62 in 1.0 mi NNE 21.9 mph 31.1 mph N/A   Overcast
12:55 AM 15.8 °F -1.9 °F 8.6 °F 73% 29.60 in 1.0 mi NNE 21.9 mph 35.7 mph N/A   Overcast
1:15 AM 14.0 °F -4.7 °F 8.6 °F 79% 29.59 in 1.0 mi NNE 23.0 mph 34.5 mph N/A   Unknown
1:35 AM 14.0 °F -5.8 °F 8.6 °F 79% 29.57 in 0.8 mi NNE 26.5 mph 38.0 mph N/A   Unknown
1:55 AM 14.0 °F -5.5 °F 8.6 °F 79% 29.59 in 0.8 mi NNE 25.3 mph 35.7 mph N/A   Unknown
2:15 AM 14.0 °F -5.8 °F 8.6 °F 79% 29.57 in 1.0 mi NNE 26.5 mph 36.8 mph N/A   Unknown
2:35 AM 12.2 °F -8.9 °F 6.8 °F 79% 29.54 in 1.0 mi NNE 28.8 mph 36.8 mph N/A   Unknown
2:55 AM 12.2 °F -6.7 °F 6.8 °F 79% 29.55 in 0.8 mi NNE 21.9 mph 36.8 mph N/A   Unknown
3:15 AM 12.2 °F -8.2 °F 6.8 °F 79% 29.54 in 0.8 mi NNE 26.5 mph 34.5 mph N/A   Unknown
3:35 AM 12.2 °F -6.7 °F 6.8 °F 79% 29.51 in 0.8 mi NNE 21.9 mph 34.5 mph N/A   Unknown
3:55 AM 12.2 °F -7.9 °F 6.8 °F 79% 29.53 in 0.5 mi NNE 25.3 mph 35.7 mph N/A   Unknown
4:15 AM 10.4 °F -11.4 °F 6.8 °F 85% 29.51 in 0.5 mi NNE 28.8 mph 39.1 mph N/A   Unknown
4:35 AM 10.4 °F -9.9 °F 5.0 °F 79% 29.53 in 0.5 mi NNE 24.2 mph 39.1 mph N/A   Unknown
4:55 AM 10.4 °F -9.5 °F 3.2 °F 73% 29.53 in 0.8 mi NNE 23.0 mph 33.4 mph N/A   Unknown
5:15 AM 10.4 °F -10.3 °F 5.0 °F 79% 29.55 in 0.5 mi NNE 25.3 mph 38.0 mph N/A   Unknown
5:35 AM 10.4 °F -11.0 °F 3.2 °F 73% 29.56 in 0.5 mi NNE 27.6 mph 34.5 mph N/A   Unknown
5:55 AM 10.4 °F -9.5 °F 5.0 °F 79% 29.58 in 0.5 mi NNE 23.0 mph 35.7 mph N/A   Unknown
6:15 AM 10.4 °F -10.3 °F 5.0 °F 79% 29.60 in 0.5 mi NNE 25.3 mph 33.4 mph N/A   Unknown
6:35 AM 10.4 °F -10.7 °F 5.0 °F 79% 29.62 in 0.5 mi North 26.5 mph 39.1 mph N/A   Unknown
6:55 AM 10.4 °F -9.5 °F 6.8 °F 85% 29.65 in 0.2 mi North 23.0 mph 38.0 mph N/A   Unknown
7:15 AM 10.4 °F -9.9 °F 6.8 °F 85% 29.67 in 0.5 mi North 24.2 mph 35.7 mph N/A   Unknown
7:35 AM 12.2 °F -7.9 °F 5.0 °F 73% 29.68 in 0.5 mi North 25.3 mph 34.5 mph N/A   Unknown
7:55 AM 12.2 °F -8.2 °F 6.8 °F 79% 29.70 in 0.8 mi North 26.5 mph 33.4 mph N/A   Unknown
8:15 AM 10.4 °F -9.5 °F 5.0 °F 79% 29.72 in 1.0 mi North 23.0 mph 33.4 mph N/A   Unknown
8:35 AM 10.4 °F -9.1 °F 5.0 °F 79% 29.74 in 2.0 mi North 21.9 mph 32.2 mph N/A   Unknown
8:55 AM 12.2 °F -5.8 °F 6.8 °F 79% 29.76 in 3.0 mi North 19.6 mph 31.1 mph N/A   Unknown
9:15 AM 12.2 °F -4.8 °F 3.2 °F 67% 29.79 in 4.0 mi North 17.3 mph 31.1 mph N/A   Unknown
9:35 AM 12.2 °F -5.3 °F 5.0 °F 73% 29.81 in 9.0 mi North 18.4 mph 31.1 mph N/A   Unknown
9:55 AM 12.2 °F -3.7 °F 5.0 °F 73% 29.82 in 10.0 mi North 15.0 mph 27.6 mph N/A   Unknown
10:15 AM 12.2 °F -3.7 °F 5.0 °F 73% 29.83 in 10.0 mi North 15.0 mph 28.8 mph N/A   Unknown
10:35 AM 14.0 °F -2.5 °F 6.8 °F 73% 29.84 in 10.0 mi North 17.3 mph 24.2 mph N/A   Unknown
10:55 AM 15.8 °F -0.6 °F 6.8 °F 68% 29.86 in 10.0 mi North 18.4 mph 25.3 mph N/A   Unknown
11:15 AM 15.8 °F 0.3 °F 6.8 °F 68% 29.86 in 10.0 mi North 16.1 mph 24.2 mph N/A   Unknown
11:35 AM 15.8 °F 0.3 °F 6.8 °F 68% 29.87 in 10.0 mi NNW 16.1 mph 21.9 mph N/A   Unknown
11:55 AM 17.6 °F 3.2 °F 6.8 °F 63% 29.88 in 10.0 mi North 15.0 mph 24.2 mph N/A   Unknown
12:15 PM 17.6 °F 4.3 °F 6.8 °F 63% 29.89 in 10.0 mi NNW 12.7 mph 21.9 mph N/A   Unknown
12:35 PM 17.6 °F 5.7 °F 8.6 °F 68% 29.90 in 10.0 mi North 10.4 mph 19.6 mph N/A   Unknown
12:55 PM 17.6 °F 2.7 °F 6.8 °F 63% 29.92 in 10.0 mi NNW 16.1 mph 21.9 mph N/A   Unknown
1:15 PM 17.6 °F 3.7 °F 5.0 °F 58% 29.94 in 10.0 mi NNW 13.8 mph 20.7 mph N/A   Scattered Clouds
1:35 PM 17.6 °F 4.3 °F 3.2 °F 53% 29.96 in 10.0 mi NNW 12.7 mph 24.2 mph N/A   Scattered Clouds
1:55 PM 17.6 °F 5.0 °F 3.2 °F 53% 29.98 in 10.0 mi NNW 11.5 mph 21.9 mph N/A   Scattered Clouds
2:15 PM 17.6 °F 5.7 °F 6.8 °F 63% 29.99 in 10.0 mi NW 10.4 mph 17.3 mph N/A   Mostly Cloudy
2:35 PM 17.6 °F 4.3 °F 5.0 °F 58% 30.01 in 10.0 mi NNW 12.7 mph 20.7 mph N/A   Partly Cloudy
2:55 PM - - - N/A% 30.03 in - NNW 12.7 mph 20.7 mph N/A   Unknown
3:15 PM 17.6 °F 3.7 °F 1.4 °F 49% 30.06 in 10.0 mi NNW 13.8 mph 25.3 mph N/A   Clear
3:35 PM 17.6 °F 3.2 °F 1.4 °F 49% 30.07 in 10.0 mi NNW 15.0 mph 24.2 mph N/A   Clear
3:55 PM 15.8 °F 0.9 °F 1.4 °F 53% 30.09 in 10.0 mi NNW 15.0 mph 23.0 mph N/A   Clear
4:15 PM 15.8 °F -0.6 °F -0.4 °F 49% 30.11 in 10.0 mi NNW 18.4 mph 25.3 mph N/A   Clear
4:35 PM 15.8 °F 0.9 °F -0.4 °F 49% 30.13 in 10.0 mi NNW 15.0 mph 27.6 mph N/A   Clear
4:55 PM 15.8 °F 0.3 °F -0.4 °F 49% 30.14 in 10.0 mi NNW 16.1 mph 25.3 mph N/A   Clear
5:15 PM 15.8 °F -2.3 °F -4.0 °F 41% 30.17 in 10.0 mi NNW 23.0 mph 35.7 mph N/A   Clear
5:35 PM 14.0 °F -4.3 °F -7.6 °F 38% 30.18 in 10.0 mi North 21.9 mph 31.1 mph N/A   Clear
5:55 PM 14.0 °F -3.9 °F -4.0 °F 45% 30.21 in 10.0 mi North 20.7 mph 28.8 mph N/A   Clear
6:15 PM 14.0 °F -3.0 °F -5.8 °F 41% 30.24 in 10.0 mi NNW 18.4 mph 29.9 mph N/A   Clear
6:35 PM 12.2 °F -3.1 °F -5.8 °F 45% 30.26 in 10.0 mi NNW 13.8 mph 20.7 mph N/A   Clear
6:55 PM 12.2 °F -5.3 °F -5.8 °F 45% 30.28 in 10.0 mi NNW 18.4 mph 25.3 mph N/A   Clear
7:15 PM 12.2 °F -1.0 °F -5.8 °F 45% 30.29 in 10.0 mi NNW 10.4 mph 19.6 mph N/A   Clear
7:35 PM 12.2 °F -1.8 °F -4.0 °F 48% 30.31 in 10.0 mi NNW 11.5 mph 16.1 mph N/A   Clear
7:55 PM 12.2 °F -1.0 °F -5.8 °F 45% 30.34 in 10.0 mi NNW 10.4 mph 17.3 mph N/A   Clear
8:15 PM 10.4 °F -4.8 °F -5.8 °F 48% 30.35 in 10.0 mi NNW 12.7 mph 16.1 mph N/A   Clear
8:35 PM 10.4 °F -4.1 °F -7.6 °F 44% 30.35 in 10.0 mi North 11.5 mph 19.6 mph N/A   Clear
8:55 PM 10.4 °F -3.3 °F -7.6 °F 44% 30.35 in 10.0 mi NNW 10.4 mph 17.3 mph N/A   Clear
9:15 PM 10.4 °F -3.3 °F -7.6 °F 44% 30.36 in 10.0 mi NNW 10.4 mph - N/A   Clear
9:35 PM 10.4 °F -3.3 °F -7.6 °F 44% 30.37 in 10.0 mi NNW 10.4 mph 17.3 mph N/A   Clear
9:55 PM 10.4 °F -4.8 °F -7.6 °F 44% 30.37 in 10.0 mi NNW 12.7 mph 17.3 mph N/A   Clear
10:15 PM 8.6 °F -5.5 °F -5.8 °F 52% 30.39 in 10.0 mi NNW 10.4 mph 20.7 mph N/A   Clear
10:35 PM 8.6 °F -7.7 °F -5.8 °F 52% 30.38 in 10.0 mi NNW 13.8 mph 19.6 mph N/A   Clear
10:55 PM 8.6 °F -5.5 °F -4.0 °F 57% 30.39 in 10.0 mi NNW 10.4 mph 17.3 mph N/A   Clear
11:15 PM 8.6 °F -7.7 °F -2.2 °F 62% 30.39 in 10.0 mi NNW 13.8 mph 19.6 mph N/A   Clear
11:35 PM 8.6 °F -5.5 °F -2.2 °F 62% 30.40 in 10.0 mi NNW 10.4 mph 17.3 mph N/A   Clear
11:55 PM 8.6 °F -2.6 °F -2.2 °F 62% 30.41 in 10.0 mi NNW 6.9 mph - N/A   Clear